Time,TemperatureF,DewpointF,PressureIn,WindDirection,WindDirectionDegrees,WindSpeedMPH,WindSpeedGustMPH,Humidity,HourlyPrecipIn,Conditions,Clouds,dailyrainin,SoftwareType,DateUTC
2013-03-11 00:00:00,55.0,46.9,30.17,ESE,115,0.0,4.0,74,0.00,,,0.00,WeatherCatV1.11B39,2013-03-11 04:00:00,
2013-03-11 00:05:00,54.6,46.8,30.17,SSE,162,0.0,1.0,75,0.00,,,0.00,WeatherCatV1.11B39,2013-03-11 04:05:00,
2013-03-11 00:10:00,54.4,47.0,30.17,SSE,165,0.0,0.0,76,0.00,,,0.00,WeatherCatV1.11B39,2013-03-11 04:10:00,
2013-03-11 00:11:00,54.3,46.9,30.17,SE,146,0.0,3.0,76,0.00,,,0.00,WeatherCatV1.11B39,2013-03-11 04:11:00,
2013-03-11 00:16:00,54.2,46.8,30.17,SSE,148,0.0,2.0,76,0.00,,,0.00,WeatherCatV1.11B39,2013-03-11 04:16:00,
2013-03-11 00:21:00,54.0,46.6,30.16,SSE,158,0.0,5.0,76,0.00,,,0.00,WeatherCatV1.11B39,2013-03-11 04:21:00,
2013-03-11 00:26:00,53.9,46.5,30.16,SE,136,2.0,3.0,76,0.00,,,0.00,WeatherCatV1.11B39,2013-03-11 04:26:00,
2013-03-11 00:31:00,53.9,46.5,30.16,SE,140,0.0,4.0,76,0.00,,,0.00,WeatherCatV1.11B39,2013-03-11 04:31:00,
2013-03-11 00:36:00,53.9,46.2,30.16,SE,142,4.0,4.0,75,0.00,,,0.00,WeatherCatV1.11B39,2013-03-11 04:36:00,
2013-03-11 00:41:00,53.9,46.2,30.16,SE,146,0.0,2.0,75,0.00,,,0.00,WeatherCatV1.11B39,2013-03-11 04:41:00,
2013-03-11 00:46:00,53.8,46.1,30.16,SE,136,0.0,1.0,75,0.00,,,0.00,WeatherCatV1.11B39,2013-03-11 04:46:00,
2013-03-11 00:51:00,53.6,45.9,30.16,ESE,114,0.0,0.0,75,0.00,,,0.00,WeatherCatV1.11B39,2013-03-11 04:51:00,
2013-03-11 00:56:00,53.4,45.7,30.16,ESE,117,0.0,3.0,75,0.00,,,0.00,WeatherCatV1.11B39,2013-03-11 04:56:00,
2013-03-11 01:01:00,53.3,45.6,30.16,SSE,151,0.0,0.0,75,0.00,,,0.00,WeatherCatV1.11B39,2013-03-11 05:01:00,
2013-03-11 01:06:00,53.1,45.7,30.16,SSE,150,0.0,0.0,76,0.00,,,0.00,WeatherCatV1.11B39,2013-03-11 05:06:00,
2013-03-11 01:11:00,52.8,45.4,30.15,SSE,150,0.0,2.0,76,0.00,,,0.00,WeatherCatV1.11B39,2013-03-11 05:11:00,
2013-03-11 01:16:00,52.5,45.2,30.15,SSE,150,0.0,0.0,76,0.00,,,0.00,WeatherCatV1.11B39,2013-03-11 05:16:00,
2013-03-11 01:21:00,52.1,45.1,30.15,SSE,150,0.0,1.0,77,0.00,,,0.00,WeatherCatV1.11B39,2013-03-11 05:21:00,
2013-03-11 01:26:00,51.8,45.2,30.15,SE,128,0.0,0.0,78,0.00,,,0.00,WeatherCatV1.11B39,2013-03-11 05:26:00,
2013-03-11 01:31:00,51.6,45.0,30.14,SE,137,0.0,2.0,78,0.00,,,0.00,WeatherCatV1.11B39,2013-03-11 05:31:00,
2013-03-11 01:36:00,51.5,44.9,30.15,SSE,163,0.0,1.0,78,0.00,,,0.00,WeatherCatV1.11B39,2013-03-11 05:36:00,
2013-03-11 01:41:00,51.6,45.0,30.15,ESE,121,0.0,0.0,78,0.00,,,0.00,WeatherCatV1.11B39,2013-03-11 05:41:00,
2013-03-11 01:46:00,51.7,45.1,30.14,ESE,121,0.0,0.0,78,0.00,,,0.00,WeatherCatV1.11B39,2013-03-11 05:46:00,
2013-03-11 01:51:00,51.6,44.6,30.14,ESE,120,0.0,2.0,77,0.00,,,0.00,WeatherCatV1.11B39,2013-03-11 05:51:00,
2013-03-11 01:56:00,51.4,44.8,30.15,SE,126,3.0,3.0,78,0.00,,,0.00,WeatherCatV1.11B39,2013-03-11 05:56:00,
2013-03-11 02:01:00,51.2,44.2,30.14,SE,126,0.0,2.0,77,0.00,,,0.00,WeatherCatV1.11B39,2013-03-11 06:01:00,
2013-03-11 02:06:00,51.1,44.1,30.14,SE,142,0.0,2.0,77,0.00,,,0.00,WeatherCatV1.11B39,2013-03-11 06:06:00,
2013-03-11 02:11:00,51.0,44.0,30.14,SSE,148,0.0,0.0,77,0.00,,,0.00,WeatherCatV1.11B39,2013-03-11 06:11:00,
2013-03-11 02:16:00,50.9,43.9,30.14,ESE,111,0.0,0.0,77,0.00,,,0.00,WeatherCatV1.11B39,2013-03-11 06:16:00,
2013-03-11 02:21:00,50.9,43.9,30.14,SE,145,0.0,4.0,77,0.00,,,0.00,WeatherCatV1.11B39,2013-03-11 06:21:00,
2013-03-11 02:26:00,50.9,43.6,30.15,SE,134,0.0,0.0,76,0.00,,,0.00,WeatherCatV1.11B39,2013-03-11 06:26:00,
2013-03-11 02:31:00,50.7,43.4,30.15,SSE,155,0.0,3.0,76,0.00,,,0.00,WeatherCatV1.11B39,2013-03-11 06:31:00,
2013-03-11 02:36:00,50.6,43.3,30.15,SSE,151,0.0,0.0,76,0.00,,,0.00,WeatherCatV1.11B39,2013-03-11 06:36:00,
2013-03-11 02:42:00,50.4,43.1,30.14,SSE,151,0.0,0.0,76,0.00,,,0.00,WeatherCatV1.11B39,2013-03-11 06:42:00,
2013-03-11 02:47:00,50.3,43.0,30.14,SSE,163,0.0,0.0,76,0.00,,,0.00,WeatherCatV1.11B39,2013-03-11 06:47:00,
2013-03-11 02:52:00,50.1,43.2,30.14,SSE,162,0.0,0.0,77,0.00,,,0.00,WeatherCatV1.11B39,2013-03-11 06:52:00,
2013-03-11 02:57:00,49.9,43.0,30.14,SE,134,0.0,3.0,77,0.00,,,0.00,WeatherCatV1.11B39,2013-03-11 06:57:00,
2013-03-11 03:02:00,49.7,42.8,30.13,SE,136,0.0,0.0,77,0.00,,,0.00,WeatherCatV1.11B39,2013-03-11 07:02:00,
2013-03-11 03:07:00,49.5,42.6,30.13,SE,130,0.0,0.0,77,0.00,,,0.00,WeatherCatV1.11B39,2013-03-11 07:07:00,
2013-03-11 03:12:00,49.4,42.5,30.13,SSE,153,0.0,0.0,77,0.00,,,0.00,WeatherCatV1.11B39,2013-03-11 07:12:00,
2013-03-11 03:17:00,49.2,42.3,30.12,SSE,153,0.0,0.0,77,0.00,,,0.00,WeatherCatV1.11B39,2013-03-11 07:17:00,
2013-03-11 03:22:00,49.0,42.1,30.12,SSE,153,0.0,0.0,77,0.00,,,0.00,WeatherCatV1.11B39,2013-03-11 07:22:00,
2013-03-11 03:27:00,48.7,42.2,30.12,SSE,153,0.0,0.0,78,0.00,,,0.00,WeatherCatV1.11B39,2013-03-11 07:27:00,
2013-03-11 03:32:00,48.5,42.0,30.12,SSE,153,0.0,0.0,78,0.00,,,0.00,WeatherCatV1.11B39,2013-03-11 07:32:00,
2013-03-11 03:37:00,48.2,42.0,30.12,SSE,153,0.0,3.0,79,0.00,,,0.00,WeatherCatV1.11B39,2013-03-11 07:37:00,
2013-03-11 03:42:00,48.0,41.8,30.12,SSE,153,0.0,1.0,79,0.00,,,0.00,WeatherCatV1.11B39,2013-03-11 07:42:00,
2013-03-11 03:47:00,47.8,41.6,30.11,SSE,153,0.0,1.0,79,0.00,,,0.00,WeatherCatV1.11B39,2013-03-11 07:47:00,
2013-03-11 03:52:00,47.6,41.7,30.11,SSE,153,0.0,0.0,80,0.00,,,0.00,WeatherCatV1.11B39,2013-03-11 07:52:00,
2013-03-11 03:57:00,47.4,41.5,30.11,SSE,153,0.0,0.0,80,0.00,,,0.00,WeatherCatV1.11B39,2013-03-11 07:57:00,
2013-03-11 04:02:00,47.2,41.7,30.11,SSE,153,0.0,0.0,81,0.00,,,0.00,WeatherCatV1.11B39,2013-03-11 08:02:00,
2013-03-11 04:07:00,47.0,41.5,30.10,SSE,153,0.0,0.0,81,0.00,,,0.00,WeatherCatV1.11B39,2013-03-11 08:07:00,
2013-03-11 04:12:00,46.9,41.4,30.10,SSE,153,0.0,1.0,81,0.00,,,0.00,WeatherCatV1.11B39,2013-03-11 08:12:00,
2013-03-11 04:17:00,46.9,41.7,30.10,SSE,153,0.0,0.0,82,0.00,,,0.00,WeatherCatV1.11B39,2013-03-11 08:17:00,
2013-03-11 04:22:00,46.8,41.6,30.09,SSE,153,0.0,1.0,82,0.00,,,0.00,WeatherCatV1.11B39,2013-03-11 08:22:00,
2013-03-11 04:27:00,46.7,41.5,30.09,SSE,153,0.0,0.0,82,0.00,,,0.00,WeatherCatV1.11B39,2013-03-11 08:27:00,
2013-03-11 04:32:00,46.7,41.5,30.09,SSE,153,0.0,0.0,82,0.00,,,0.00,WeatherCatV1.11B39,2013-03-11 08:32:00,
2013-03-11 04:37:00,46.6,41.4,30.09,SSE,153,0.0,0.0,82,0.00,,,0.00,WeatherCatV1.11B39,2013-03-11 08:37:00,
2013-03-11 04:42:00,46.5,41.3,30.10,SSE,153,0.0,0.0,82,0.00,,,0.00,WeatherCatV1.11B39,2013-03-11 08:42:00,
2013-03-11 04:47:00,46.5,41.3,30.09,SSE,153,0.0,0.0,82,0.00,,,0.00,WeatherCatV1.11B39,2013-03-11 08:47:00,
2013-03-11 04:52:00,46.3,41.1,30.09,SSE,153,0.0,0.0,82,0.00,,,0.00,WeatherCatV1.11B39,2013-03-11 08:52:00,
2013-03-11 04:57:00,46.3,41.1,30.09,SSE,153,1.0,1.0,82,0.00,,,0.00,WeatherCatV1.11B39,2013-03-11 08:57:00,
2013-03-11 05:02:00,46.2,41.0,30.09,SSE,153,0.0,0.0,82,0.00,,,0.00,WeatherCatV1.11B39,2013-03-11 09:02:00,
2013-03-11 05:07:00,46.1,40.9,30.09,SSE,153,0.0,0.0,82,0.00,,,0.00,WeatherCatV1.11B39,2013-03-11 09:07:00,
2013-03-11 05:12:00,46.0,40.8,30.09,SSE,153,0.0,1.0,82,0.00,,,0.00,WeatherCatV1.11B39,2013-03-11 09:12:00,
2013-03-11 05:17:00,45.9,40.7,30.09,SSE,153,0.0,0.0,82,0.00,,,0.00,WeatherCatV1.11B39,2013-03-11 09:17:00,
2013-03-11 05:22:00,45.9,40.7,30.09,SSE,153,0.0,0.0,82,0.00,,,0.00,WeatherCatV1.11B39,2013-03-11 09:22:00,
2013-03-11 05:27:00,45.8,40.6,30.09,SSE,153,0.0,0.0,82,0.00,,,0.00,WeatherCatV1.11B39,2013-03-11 09:27:00,
2013-03-11 05:32:00,45.8,40.6,30.09,SSE,153,0.0,0.0,82,0.00,,,0.00,WeatherCatV1.11B39,2013-03-11 09:32:00,
2013-03-11 05:37:00,45.6,40.1,30.09,SSE,153,0.0,0.0,81,0.00,,,0.00,WeatherCatV1.11B39,2013-03-11 09:37:00,
2013-03-11 05:42:00,45.5,40.0,30.09,SSE,153,0.0,0.0,81,0.00,,,0.00,WeatherCatV1.11B39,2013-03-11 09:42:00,
2013-03-11 05:47:00,45.4,40.2,30.08,SSE,153,0.0,0.0,82,0.00,,,0.00,WeatherCatV1.11B39,2013-03-11 09:47:00,
2013-03-11 05:52:00,45.3,40.1,30.09,SSE,153,0.0,0.0,82,0.00,,,0.00,WeatherCatV1.11B39,2013-03-11 09:52:00,
2013-03-11 05:57:00,45.2,40.0,30.09,SSE,153,0.0,0.0,82,0.00,,,0.00,WeatherCatV1.11B39,2013-03-11 09:57:00,
2013-03-11 06:03:00,45.1,39.9,30.09,SSE,153,0.0,0.0,82,0.00,,,0.00,WeatherCatV1.11B39,2013-03-11 10:03:00,
2013-03-11 06:08:00,45.0,39.8,30.08,SSE,153,0.0,1.0,82,0.00,,,0.00,WeatherCatV1.11B39,2013-03-11 10:08:00,
2013-03-11 06:13:00,45.0,39.8,30.08,SSE,153,0.0,0.0,82,0.00,,,0.00,WeatherCatV1.11B39,2013-03-11 10:13:00,
2013-03-11 06:18:00,44.9,39.7,30.08,SSE,153,0.0,1.0,82,0.00,,,0.00,WeatherCatV1.11B39,2013-03-11 10:18:00,
2013-03-11 06:23:00,44.8,40.0,30.08,SSE,153,0.0,0.0,83,0.00,,,0.00,WeatherCatV1.11B39,2013-03-11 10:23:00,
2013-03-11 06:28:00,44.7,39.9,30.07,SSE,150,0.0,2.0,83,0.00,,,0.00,WeatherCatV1.11B39,2013-03-11 10:28:00,
2013-03-11 06:33:00,44.8,40.0,30.08,SSE,150,0.0,0.0,83,0.00,,,0.00,WeatherCatV1.11B39,2013-03-11 10:33:00,
2013-03-11 06:38:00,44.8,40.0,30.08,SSE,150,0.0,0.0,83,0.00,,,0.00,WeatherCatV1.11B39,2013-03-11 10:38:00,
2013-03-11 06:43:00,44.8,40.0,30.08,SSE,150,0.0,0.0,83,0.00,,,0.00,WeatherCatV1.11B39,2013-03-11 10:43:00,
2013-03-11 06:48:00,44.7,39.9,30.08,SSE,150,0.0,2.0,83,0.00,,,0.00,WeatherCatV1.11B39,2013-03-11 10:48:00,
2013-03-11 06:53:00,44.6,39.8,30.08,SSE,150,0.0,0.0,83,0.00,,,0.00,WeatherCatV1.11B39,2013-03-11 10:53:00,
2013-03-11 06:58:00,44.5,39.7,30.08,SSE,150,0.0,1.0,83,0.00,,,0.00,WeatherCatV1.11B39,2013-03-11 10:58:00,
2013-03-11 07:03:00,44.4,39.6,30.08,SSE,150,0.0,1.0,83,0.00,,,0.00,WeatherCatV1.11B39,2013-03-11 11:03:00,
2013-03-11 07:08:00,44.3,39.5,30.07,SSE,150,0.0,2.0,83,0.00,,,0.00,WeatherCatV1.11B39,2013-03-11 11:08:00,
2013-03-11 07:13:00,44.2,39.4,30.08,SSE,150,0.0,0.0,83,0.00,,,0.00,WeatherCatV1.11B39,2013-03-11 11:13:00,
2013-03-11 07:18:00,44.1,39.6,30.08,SSE,150,0.0,0.0,84,0.00,,,0.00,WeatherCatV1.11B39,2013-03-11 11:18:00,
2013-03-11 07:23:00,44.0,39.5,30.08,SSE,150,0.0,0.0,84,0.00,,,0.00,WeatherCatV1.11B39,2013-03-11 11:23:00,
2013-03-11 07:28:00,44.0,39.5,30.08,SSE,150,0.0,0.0,84,0.00,,,0.00,WeatherCatV1.11B39,2013-03-11 11:28:00,
2013-03-11 07:33:00,43.9,39.4,30.09,SSE,150,0.0,0.0,84,0.00,,,0.00,WeatherCatV1.11B39,2013-03-11 11:33:00,
2013-03-11 07:38:00,43.8,39.3,30.09,SSE,150,0.0,0.0,84,0.00,,,0.00,WeatherCatV1.11B39,2013-03-11 11:38:00,
2013-03-11 07:43:00,43.9,39.7,30.09,SSE,150,0.0,0.0,85,0.00,,,0.00,WeatherCatV1.11B39,2013-03-11 11:43:00,
2013-03-11 07:48:00,44.0,39.8,30.09,SSE,150,0.0,0.0,85,0.00,,,0.00,WeatherCatV1.11B39,2013-03-11 11:48:00,
2013-03-11 07:53:00,44.0,39.8,30.09,SSE,150,0.0,0.0,85,0.00,,,0.00,WeatherCatV1.11B39,2013-03-11 11:53:00,
2013-03-11 07:58:00,44.0,39.8,30.09,SSE,150,0.0,0.0,85,0.00,,,0.00,WeatherCatV1.11B39,2013-03-11 11:58:00,
2013-03-11 08:03:00,44.0,39.8,30.09,SSE,150,0.0,0.0,85,0.00,,,0.00,WeatherCatV1.11B39,2013-03-11 12:03:00,
2013-03-11 08:08:00,44.1,39.9,30.09,SSE,150,0.0,0.0,85,0.00,,,0.00,WeatherCatV1.11B39,2013-03-11 12:08:00,
2013-03-11 08:13:00,44.2,40.0,30.09,SSE,150,0.0,0.0,85,0.00,,,0.00,WeatherCatV1.11B39,2013-03-11 12:13:00,
2013-03-11 08:18:00,44.3,40.1,30.09,SSE,150,0.0,0.0,85,0.00,,,0.00,WeatherCatV1.11B39,2013-03-11 12:18:00,
2013-03-11 08:23:00,44.3,40.1,30.09,SSE,150,0.0,0.0,85,0.00,,,0.00,WeatherCatV1.11B39,2013-03-11 12:23:00,
2013-03-11 08:28:00,44.4,40.2,30.09,SSE,150,0.0,0.0,85,0.00,,,0.00,WeatherCatV1.11B39,2013-03-11 12:28:00,
2013-03-11 08:33:00,44.6,40.4,30.09,SSE,150,0.0,2.0,85,0.00,,,0.00,WeatherCatV1.11B39,2013-03-11 12:33:00,
2013-03-11 08:38:00,45.0,41.1,30.09,SSE,150,0.0,2.0,86,0.00,,,0.00,WeatherCatV1.11B39,2013-03-11 12:38:00,
2013-03-11 08:43:00,45.3,41.4,30.09,SSE,150,0.0,0.0,86,0.00,,,0.00,WeatherCatV1.11B39,2013-03-11 12:43:00,
2013-03-11 08:48:00,45.8,41.5,30.09,SSE,150,0.0,0.0,85,0.00,,,0.00,WeatherCatV1.11B39,2013-03-11 12:48:00,
2013-03-11 08:53:00,46.3,42.0,30.10,SSE,150,0.0,0.0,85,0.00,,,0.00,WeatherCatV1.11B39,2013-03-11 12:53:00,
2013-03-11 08:58:00,46.8,42.5,30.10,SSE,150,0.0,1.0,85,0.00,,,0.00,WeatherCatV1.11B39,2013-03-11 12:58:00,
2013-03-11 09:03:00,47.5,42.9,30.10,SSE,150,0.0,2.0,84,0.00,,,0.00,WeatherCatV1.11B39,2013-03-11 13:03:00,
2013-03-11 09:08:00,48.3,43.1,30.10,SSE,163,1.0,3.0,82,0.00,,,0.00,WeatherCatV1.11B39,2013-03-11 13:08:00,
2013-03-11 09:13:00,49.0,43.4,30.10,SSE,163,0.0,1.0,81,0.00,,,0.00,WeatherCatV1.11B39,2013-03-11 13:13:00,
2013-03-11 09:18:00,49.5,43.9,30.10,SSE,162,1.0,3.0,81,0.00,,,0.00,WeatherCatV1.11B39,2013-03-11 13:18:00,
2013-03-11 09:23:00,49.9,44.0,30.11,SSE,162,0.0,0.0,80,0.00,,,0.00,WeatherCatV1.11B39,2013-03-11 13:23:00,
2013-03-11 09:28:00,50.3,44.4,30.10,SSE,162,0.0,2.0,80,0.00,,,0.00,WeatherCatV1.11B39,2013-03-11 13:28:00,
2013-03-11 09:33:00,50.6,44.7,30.10,SSE,162,0.0,4.0,80,0.00,,,0.00,WeatherCatV1.11B39,2013-03-11 13:33:00,
2013-03-11 09:38:00,51.0,45.4,30.10,SSE,162,0.0,0.0,81,0.00,,,0.00,WeatherCatV1.11B39,2013-03-11 13:38:00,
2013-03-11 09:43:00,51.5,45.9,30.10,SSE,161,0.0,1.0,81,0.00,,,0.00,WeatherCatV1.11B39,2013-03-11 13:43:00,
2013-03-11 09:48:00,51.9,45.9,30.09,East,90,0.0,2.0,80,0.00,,,0.00,WeatherCatV1.11B39,2013-03-11 13:48:00,
2013-03-11 09:53:00,52.6,46.3,30.09,SE,134,0.0,4.0,79,0.00,,,0.00,WeatherCatV1.11B39,2013-03-11 13:53:00,
2013-03-11 09:58:00,53.2,46.5,30.09,SE,146,4.0,4.0,78,0.00,,,0.00,WeatherCatV1.11B39,2013-03-11 13:58:00,
2013-03-11 10:03:00,53.5,46.5,30.09,SSE,159,2.0,3.0,77,0.00,,,0.00,WeatherCatV1.11B39,2013-03-11 14:03:00,
2013-03-11 10:08:00,53.9,46.9,30.10,SE,143,0.0,3.0,77,0.00,,,0.00,WeatherCatV1.11B39,2013-03-11 14:08:00,
2013-03-11 10:13:00,54.2,47.1,30.09,South,171,2.0,2.0,77,0.00,,,0.00,WeatherCatV1.11B39,2013-03-11 14:13:00,
2013-03-11 10:18:00,54.7,47.3,30.09,SE,134,0.0,2.0,76,0.00,,,0.00,WeatherCatV1.11B39,2013-03-11 14:18:00,
2013-03-11 10:24:00,55.1,47.7,30.09,SSE,152,0.0,1.0,76,0.00,,,0.00,WeatherCatV1.11B39,2013-03-11 14:24:00,
2013-03-11 10:29:00,55.8,48.3,30.09,South,179,2.0,5.0,76,0.00,,,0.00,WeatherCatV1.11B39,2013-03-11 14:29:00,
2013-03-11 10:34:00,56.6,48.4,30.08,South,175,4.0,6.0,74,0.00,,,0.00,WeatherCatV1.11B39,2013-03-11 14:34:00,
2013-03-11 10:39:00,57.2,49.0,30.08,SE,139,1.0,4.0,74,0.00,,,0.00,WeatherCatV1.11B39,2013-03-11 14:39:00,
2013-03-11 10:44:00,57.7,49.1,30.08,SSW,198,5.0,5.0,73,0.00,,,0.00,WeatherCatV1.11B39,2013-03-11 14:44:00,
2013-03-11 10:49:00,58.1,49.1,30.08,SSE,167,0.0,0.0,72,0.00,,,0.00,WeatherCatV1.11B39,2013-03-11 14:49:00,
2013-03-11 10:54:00,59.0,49.6,30.08,SSE,161,4.0,6.0,71,0.00,,,0.00,WeatherCatV1.11B39,2013-03-11 14:54:00,
2013-03-11 10:59:00,59.7,49.9,30.08,SE,132,1.0,4.0,70,0.00,,,0.00,WeatherCatV1.11B39,2013-03-11 14:59:00,
2013-03-11 11:04:00,60.7,50.1,30.07,SE,134,1.0,4.0,68,0.00,,,0.00,WeatherCatV1.11B39,2013-03-11 15:04:00,
2013-03-11 11:09:00,61.4,50.3,30.08,South,185,0.0,5.0,67,0.00,,,0.00,WeatherCatV1.11B39,2013-03-11 15:09:00,
2013-03-11 11:14:00,62.3,50.4,30.07,South,182,0.0,3.0,65,0.00,,,0.00,WeatherCatV1.11B39,2013-03-11 15:14:00,
2013-03-11 11:19:00,63.4,51.4,30.07,SSE,160,2.0,5.0,65,0.00,,,0.00,WeatherCatV1.11B39,2013-03-11 15:19:00,
2013-03-11 11:24:00,63.6,51.2,30.07,South,178,5.0,7.0,64,0.00,,,0.00,WeatherCatV1.11B39,2013-03-11 15:24:00,
2013-03-11 11:29:00,64.0,51.6,30.07,SSE,156,0.0,3.0,64,0.00,,,0.00,WeatherCatV1.11B39,2013-03-11 15:29:00,
2013-03-11 11:34:00,64.5,51.6,30.06,South,180,0.0,4.0,63,0.00,,,0.00,WeatherCatV1.11B39,2013-03-11 15:34:00,
2013-03-11 11:39:00,64.8,51.9,30.06,SE,138,1.0,6.0,63,0.00,,,0.00,WeatherCatV1.11B39,2013-03-11 15:39:00,
2013-03-11 11:44:00,65.1,52.2,30.06,SE,144,1.0,5.0,63,0.00,,,0.00,WeatherCatV1.11B39,2013-03-11 15:44:00,
2013-03-11 11:49:00,65.4,52.0,30.05,West,263,3.0,14.0,62,0.00,,,0.00,WeatherCatV1.11B39,2013-03-11 15:49:00,
2013-03-11 11:54:00,66.1,52.3,30.05,SSW,202,2.0,6.0,61,0.00,,,0.00,WeatherCatV1.11B39,2013-03-11 15:54:00,
2013-03-11 11:59:00,67.0,52.6,30.05,South,179,6.0,10.0,60,0.00,,,0.00,WeatherCatV1.11B39,2013-03-11 15:59:00,
2013-03-11 12:04:00,67.4,53.0,30.05,WSW,240,0.0,6.0,60,0.00,,,0.00,WeatherCatV1.11B39,2013-03-11 16:04:00,
2013-03-11 12:09:00,69.0,53.6,30.05,SSW,192,13.0,17.0,58,0.00,,,0.00,WeatherCatV1.11B39,2013-03-11 16:09:00,
2013-03-11 12:14:00,68.5,52.7,30.05,SE,132,8.0,15.0,57,0.00,,,0.00,WeatherCatV1.11B39,2013-03-11 16:14:00,
2013-03-11 12:19:00,68.2,52.4,30.05,South,169,14.0,14.0,57,0.00,,,0.00,WeatherCatV1.11B39,2013-03-11 16:19:00,
2013-03-11 12:24:00,68.0,52.7,30.04,South,185,7.0,7.0,58,0.00,,,0.00,WeatherCatV1.11B39,2013-03-11 16:24:00,
2013-03-11 12:29:00,67.9,52.6,30.04,SSW,194,8.0,8.0,58,0.00,,,0.00,WeatherCatV1.11B39,2013-03-11 16:29:00,
2013-03-11 12:34:00,67.9,52.6,30.04,South,186,3.0,11.0,58,0.00,,,0.00,WeatherCatV1.11B39,2013-03-11 16:34:00,
2013-03-11 12:39:00,68.5,53.6,30.04,SSE,150,2.0,9.0,59,0.00,,,0.00,WeatherCatV1.11B39,2013-03-11 16:39:00,
2013-03-11 12:44:00,69.3,53.4,30.03,SSW,198,6.0,10.0,57,0.00,,,0.00,WeatherCatV1.11B39,2013-03-11 16:44:00,
2013-03-11 12:49:00,69.4,53.5,30.03,SSW,198,7.0,8.0,57,0.00,,,0.00,WeatherCatV1.11B39,2013-03-11 16:49:00,
2013-03-11 12:54:00,69.9,53.5,30.03,South,171,11.0,15.0,56,0.00,,,0.00,WeatherCatV1.11B39,2013-03-11 16:54:00,
2013-03-11 12:59:00,71.4,53.9,30.03,SSW,198,7.0,9.0,54,0.00,,,0.00,WeatherCatV1.11B39,2013-03-11 16:59:00,
2013-03-11 13:04:00,71.4,52.3,30.02,SSE,157,5.0,13.0,51,0.00,,,0.00,WeatherCatV1.11B39,2013-03-11 17:04:00,
2013-03-11 13:09:00,71.8,53.7,30.02,South,186,18.0,21.0,53,0.00,,,0.00,WeatherCatV1.11B39,2013-03-11 17:09:00,
2013-03-11 13:14:00,71.4,52.3,30.01,SSW,209,7.0,16.0,51,0.00,,,0.00,WeatherCatV1.11B39,2013-03-11 17:14:00,
2013-03-11 13:19:00,71.4,52.8,30.01,SSW,203,9.0,16.0,52,0.00,,,0.00,WeatherCatV1.11B39,2013-03-11 17:19:00,
2013-03-11 13:24:00,72.1,52.4,30.01,SSW,195,20.0,20.0,50,0.00,,,0.00,WeatherCatV1.11B39,2013-03-11 17:24:00,
2013-03-11 13:29:00,72.0,52.3,30.01,South,172,12.0,21.0,50,0.00,,,0.00,WeatherCatV1.11B39,2013-03-11 17:29:00,
2013-03-11 13:34:00,71.0,52.5,30.01,SSE,163,8.0,16.0,52,0.00,,,0.00,WeatherCatV1.11B39,2013-03-11 17:34:00,
2013-03-11 13:39:00,70.0,52.1,30.01,SSW,196,6.0,19.0,53,0.00,,,0.00,WeatherCatV1.11B39,2013-03-11 17:39:00,
2013-03-11 13:44:00,69.9,53.0,30.00,SSW,194,7.0,9.0,55,0.00,,,0.00,WeatherCatV1.11B39,2013-03-11 17:44:00,
2013-03-11 13:49:00,70.4,52.4,30.00,South,176,3.0,13.0,53,0.00,,,0.00,WeatherCatV1.11B39,2013-03-11 17:49:00,
2013-03-11 13:54:00,70.5,52.5,30.00,South,179,6.0,9.0,53,0.00,,,0.00,WeatherCatV1.11B39,2013-03-11 17:54:00,
2013-03-11 13:59:00,70.4,52.9,30.00,South,186,7.0,9.0,54,0.00,,,0.00,WeatherCatV1.11B39,2013-03-11 17:59:00,
2013-03-11 14:04:00,71.8,53.7,29.99,South,184,4.0,10.0,53,0.00,,,0.00,WeatherCatV1.11B39,2013-03-11 18:04:00,
2013-03-11 14:09:00,72.4,52.7,29.98,SSE,167,5.0,15.0,50,0.00,,,0.00,WeatherCatV1.11B39,2013-03-11 18:09:00,
2013-03-11 14:15:00,72.1,53.0,29.98,SSE,164,11.0,11.0,51,0.00,,,0.00,WeatherCatV1.11B39,2013-03-11 18:15:00,
2013-03-11 14:20:00,72.5,53.3,29.98,SSW,205,1.0,14.0,51,0.00,,,0.00,WeatherCatV1.11B39,2013-03-11 18:20:00,
2013-03-11 14:25:00,72.9,52.6,29.97,SSE,164,13.0,18.0,49,0.00,,,0.00,WeatherCatV1.11B39,2013-03-11 18:25:00,
2013-03-11 14:30:00,73.8,52.3,29.95,South,189,2.0,6.0,47,0.00,,,0.00,WeatherCatV1.11B39,2013-03-11 18:30:00,
2013-03-11 14:35:00,73.7,52.2,29.95,SSE,153,0.0,15.0,47,0.00,,,0.00,WeatherCatV1.11B39,2013-03-11 18:35:00,
2013-03-11 14:40:00,72.7,51.3,29.94,SSE,155,1.0,12.0,47,0.00,,,0.00,WeatherCatV1.11B39,2013-03-11 18:40:00,
2013-03-11 14:45:00,72.3,51.5,29.93,SSW,203,4.0,9.0,48,0.00,,,0.00,WeatherCatV1.11B39,2013-03-11 18:45:00,
2013-03-11 14:50:00,72.1,51.3,29.92,SSW,200,10.0,15.0,48,0.00,,,0.00,WeatherCatV1.11B39,2013-03-11 18:50:00,
2013-03-11 14:55:00,71.9,51.7,29.92,ESE,118,5.0,11.0,49,0.00,,,0.00,WeatherCatV1.11B39,2013-03-11 18:55:00,
2013-03-11 15:00:00,71.8,51.0,29.92,South,171,6.0,13.0,48,0.00,,,0.00,WeatherCatV1.11B39,2013-03-11 19:00:00,
2013-03-11 15:05:00,71.4,50.7,29.92,SSW,209,6.0,13.0,48,0.00,,,0.00,WeatherCatV1.11B39,2013-03-11 19:05:00,
2013-03-11 15:10:00,71.6,50.9,29.92,SSE,166,7.0,16.0,48,0.00,,,0.00,WeatherCatV1.11B39,2013-03-11 19:10:00,
2013-03-11 15:15:00,71.3,50.6,29.92,SSE,151,10.0,14.0,48,0.00,,,0.00,WeatherCatV1.11B39,2013-03-11 19:15:00,
2013-03-11 15:20:00,71.3,51.1,29.91,SE,140,7.0,15.0,49,0.00,,,0.00,WeatherCatV1.11B39,2013-03-11 19:20:00,
2013-03-11 15:25:00,71.6,51.4,29.91,South,173,4.0,12.0,49,0.00,,,0.00,WeatherCatV1.11B39,2013-03-11 19:25:00,
2013-03-11 15:30:00,71.6,52.0,29.92,South,184,4.0,10.0,50,0.00,,,0.00,WeatherCatV1.11B39,2013-03-11 19:30:00,
2013-03-11 15:35:00,71.7,52.1,29.92,SSE,158,4.0,12.0,50,0.00,,,0.00,WeatherCatV1.11B39,2013-03-11 19:35:00,
2013-03-11 15:40:00,71.7,51.5,29.92,SSW,198,4.0,14.0,49,0.00,,,0.00,WeatherCatV1.11B39,2013-03-11 19:40:00,
2013-03-11 15:45:00,71.6,52.0,29.92,South,171,2.0,9.0,50,0.00,,,0.00,WeatherCatV1.11B39,2013-03-11 19:45:00,
2013-03-11 15:50:00,71.4,51.2,29.93,SSW,200,0.0,15.0,49,0.00,,,0.00,WeatherCatV1.11B39,2013-03-11 19:50:00,
2013-03-11 15:55:00,71.0,51.4,29.92,SW,221,6.0,9.0,50,0.00,,,0.00,WeatherCatV1.11B39,2013-03-11 19:55:00,
2013-03-11 16:00:00,70.9,51.9,29.92,South,171,5.0,10.0,51,0.00,,,0.00,WeatherCatV1.11B39,2013-03-11 20:00:00,
2013-03-11 16:05:00,71.0,51.9,29.92,SSW,196,0.0,8.0,51,0.00,,,0.00,WeatherCatV1.11B39,2013-03-11 20:05:00,
2013-03-11 16:10:00,71.2,51.0,29.91,South,175,1.0,8.0,49,0.00,,,0.00,WeatherCatV1.11B39,2013-03-11 20:10:00,
2013-03-11 16:15:00,71.3,51.7,29.91,SSE,166,1.0,9.0,50,0.00,,,0.00,WeatherCatV1.11B39,2013-03-11 20:15:00,
2013-03-11 16:20:00,71.4,51.2,29.91,SW,214,6.0,12.0,49,0.00,,,0.00,WeatherCatV1.11B39,2013-03-11 20:20:00,
2013-03-11 16:25:00,71.3,51.1,29.91,SSW,196,8.0,11.0,49,0.00,,,0.00,WeatherCatV1.11B39,2013-03-11 20:25:00,
2013-03-11 16:30:00,71.3,51.1,29.91,South,184,12.0,12.0,49,0.00,,,0.00,WeatherCatV1.11B39,2013-03-11 20:30:00,
2013-03-11 16:35:00,71.1,51.0,29.91,SSW,205,5.0,10.0,49,0.00,,,0.00,WeatherCatV1.11B39,2013-03-11 20:35:00,
2013-03-11 16:40:00,70.9,50.8,29.91,SE,140,5.0,17.0,49,0.00,,,0.00,WeatherCatV1.11B39,2013-03-11 20:40:00,
2013-03-11 16:45:00,70.7,51.1,29.91,South,178,3.0,9.0,50,0.00,,,0.00,WeatherCatV1.11B39,2013-03-11 20:45:00,
2013-03-11 16:50:00,70.5,51.0,29.90,SSE,165,3.0,6.0,50,0.00,,,0.00,WeatherCatV1.11B39,2013-03-11 20:50:00,
2013-03-11 16:55:00,70.3,51.3,29.90,SSW,209,3.0,8.0,51,0.00,,,0.00,WeatherCatV1.11B39,2013-03-11 20:55:00,
2013-03-11 17:00:00,70.2,51.7,29.89,South,181,3.0,9.0,52,0.00,,,0.00,WeatherCatV1.11B39,2013-03-11 21:00:00,
2013-03-11 17:05:00,70.2,51.7,29.89,SSE,162,5.0,9.0,52,0.00,,,0.00,WeatherCatV1.11B39,2013-03-11 21:05:00,
2013-03-11 17:10:00,70.3,51.3,29.88,SSE,152,4.0,9.0,51,0.00,,,0.00,WeatherCatV1.11B39,2013-03-11 21:10:00,
2013-03-11 17:15:00,70.4,51.9,29.88,SSE,165,3.0,7.0,52,0.00,,,0.00,WeatherCatV1.11B39,2013-03-11 21:15:00,
2013-03-11 17:20:00,70.6,52.1,29.87,SE,134,2.0,13.0,52,0.00,,,0.00,WeatherCatV1.11B39,2013-03-11 21:20:00,
2013-03-11 17:25:00,70.8,52.3,29.87,SE,143,5.0,11.0,52,0.00,,,0.00,WeatherCatV1.11B39,2013-03-11 21:25:00,
2013-03-11 17:30:00,70.8,51.8,29.87,South,185,4.0,5.0,51,0.00,,,0.00,WeatherCatV1.11B39,2013-03-11 21:30:00,
2013-03-11 17:35:00,70.6,52.1,29.86,ESE,120,1.0,11.0,52,0.00,,,0.00,WeatherCatV1.11B39,2013-03-11 21:35:00,
2013-03-11 17:40:00,70.5,52.0,29.86,South,182,4.0,12.0,52,0.00,,,0.00,WeatherCatV1.11B39,2013-03-11 21:40:00,
2013-03-11 17:45:00,70.2,52.3,29.86,South,182,0.0,3.0,53,0.00,,,0.00,WeatherCatV1.11B39,2013-03-11 21:45:00,
2013-03-11 17:50:00,69.9,52.0,29.86,South,177,0.0,8.0,53,0.00,,,0.00,WeatherCatV1.11B39,2013-03-11 21:50:00,
2013-03-11 17:55:00,69.7,51.3,29.86,SSW,202,7.0,7.0,52,0.00,,,0.00,WeatherCatV1.11B39,2013-03-11 21:55:00,
2013-03-11 18:00:00,69.6,51.7,29.86,SSE,157,1.0,4.0,53,0.00,,,0.00,WeatherCatV1.11B39,2013-03-11 22:00:00,
2013-03-11 18:05:00,69.4,52.0,29.85,SW,215,1.0,5.0,54,0.00,,,0.00,WeatherCatV1.11B39,2013-03-11 22:05:00,
2013-03-11 18:10:00,69.3,51.9,29.83,SE,133,8.0,8.0,54,0.00,,,0.00,WeatherCatV1.11B39,2013-03-11 22:10:00,
2013-03-11 18:15:00,69.0,52.1,29.86,South,185,2.0,7.0,55,0.00,,,0.00,WeatherCatV1.11B39,2013-03-11 22:15:00,
2013-03-11 18:20:00,68.9,51.6,29.87,South,178,0.0,7.0,54,0.00,,,0.00,WeatherCatV1.11B39,2013-03-11 22:20:00,
2013-03-11 18:26:00,68.8,51.5,29.86,SSE,167,5.0,7.0,54,0.00,,,0.00,WeatherCatV1.11B39,2013-03-11 22:26:00,
2013-03-11 18:31:00,68.7,51.4,29.87,SSW,213,2.0,8.0,54,0.00,,,0.00,WeatherCatV1.11B39,2013-03-11 22:31:00,
2013-03-11 18:36:00,68.6,51.8,29.86,South,186,0.0,6.0,55,0.00,,,0.00,WeatherCatV1.11B39,2013-03-11 22:36:00,
2013-03-11 18:41:00,68.5,52.2,29.86,SSE,165,0.0,8.0,56,0.00,,,0.00,WeatherCatV1.11B39,2013-03-11 22:41:00,
2013-03-11 18:46:00,68.3,51.5,29.85,SSE,159,4.0,10.0,55,0.00,,,0.00,WeatherCatV1.11B39,2013-03-11 22:46:00,
2013-03-11 18:51:00,68.2,51.9,29.85,SSE,160,3.0,5.0,56,0.00,,,0.00,WeatherCatV1.11B39,2013-03-11 22:51:00,
2013-03-11 18:56:00,68.1,51.8,29.86,South,171,3.0,10.0,56,0.00,,,0.00,WeatherCatV1.11B39,2013-03-11 22:56:00,
2013-03-11 19:01:00,67.9,52.6,29.86,SSE,163,0.0,1.0,58,0.00,,,0.00,WeatherCatV1.11B39,2013-03-11 23:01:00,
2013-03-11 19:06:00,67.6,52.3,29.87,South,188,14.0,14.0,58,0.00,,,0.00,WeatherCatV1.11B39,2013-03-11 23:06:00,
2013-03-11 19:11:00,67.5,52.2,29.87,South,173,1.0,8.0,58,0.00,,,0.00,WeatherCatV1.11B39,2013-03-11 23:11:00,
2013-03-11 19:16:00,67.5,52.7,29.87,SSW,200,6.0,9.0,59,0.00,,,0.00,WeatherCatV1.11B39,2013-03-11 23:16:00,
2013-03-11 19:21:00,67.4,52.6,29.87,SE,140,0.0,4.0,59,0.00,,,0.00,WeatherCatV1.11B39,2013-03-11 23:21:00,
2013-03-11 19:26:00,67.3,52.5,29.86,SSE,154,0.0,4.0,59,0.00,,,0.00,WeatherCatV1.11B39,2013-03-11 23:26:00,
2013-03-11 19:31:00,67.1,52.7,29.86,South,188,0.0,3.0,60,0.00,,,0.00,WeatherCatV1.11B39,2013-03-11 23:31:00,
2013-03-11 19:36:00,67.0,52.6,29.85,South,185,0.0,1.0,60,0.00,,,0.00,WeatherCatV1.11B39,2013-03-11 23:36:00,
2013-03-11 19:41:00,66.8,52.9,29.86,South,180,0.0,2.0,61,0.00,,,0.00,WeatherCatV1.11B39,2013-03-11 23:41:00,
2013-03-11 19:46:00,66.6,53.2,29.85,SE,131,0.0,6.0,62,0.00,,,0.00,WeatherCatV1.11B39,2013-03-11 23:46:00,
2013-03-11 19:51:00,66.5,53.1,29.86,SSE,160,0.0,4.0,62,0.00,,,0.00,WeatherCatV1.11B39,2013-03-11 23:51:00,
2013-03-11 19:56:00,66.4,53.4,29.86,SSW,198,4.0,9.0,63,0.00,,,0.00,WeatherCatV1.11B39,2013-03-11 23:56:00,
2013-03-11 20:01:00,66.5,53.5,29.87,South,190,3.0,4.0,63,0.00,,,0.00,WeatherCatV1.11B39,2013-03-12 00:01:00,
2013-03-11 20:06:00,66.4,53.4,29.86,SE,146,0.0,3.0,63,0.00,,,0.00,WeatherCatV1.11B39,2013-03-12 00:06:00,
2013-03-11 20:11:00,66.3,53.7,29.86,South,173,0.0,3.0,64,0.00,,,0.00,WeatherCatV1.11B39,2013-03-12 00:11:00,
2013-03-11 20:16:00,66.2,53.7,29.86,SE,126,10.0,10.0,64,0.00,,,0.00,WeatherCatV1.11B39,2013-03-12 00:16:00,
2013-03-11 20:21:00,66.2,53.7,29.87,SSE,148,2.0,9.0,64,0.00,,,0.00,WeatherCatV1.11B39,2013-03-12 00:21:00,
2013-03-11 20:26:00,66.2,53.7,29.86,South,170,0.0,4.0,64,0.00,,,0.00,WeatherCatV1.11B39,2013-03-12 00:26:00,
2013-03-11 20:31:00,66.1,54.0,29.86,SSE,162,0.0,0.0,65,0.00,,,0.00,WeatherCatV1.11B39,2013-03-12 00:31:00,
2013-03-11 20:36:00,65.9,54.2,29.86,South,180,0.0,7.0,66,0.00,,,0.00,WeatherCatV1.11B39,2013-03-12 00:36:00,
2013-03-11 20:41:00,65.6,53.9,29.84,ESE,105,3.0,6.0,66,0.00,,,0.00,WeatherCatV1.11B39,2013-03-12 00:41:00,
2013-03-11 20:46:00,65.4,54.1,29.85,SE,130,3.0,7.0,67,0.00,,,0.00,WeatherCatV1.11B39,2013-03-12 00:46:00,
2013-03-11 20:51:00,65.3,54.5,29.85,SSE,150,3.0,5.0,68,0.00,,,0.00,WeatherCatV1.11B39,2013-03-12 00:51:00,
2013-03-11 20:57:00,65.1,53.9,29.86,SE,134,4.0,9.0,67,0.00,,,0.00,WeatherCatV1.11B39,2013-03-12 00:57:00,
2013-03-11 21:02:00,65.1,54.3,29.85,South,169,5.0,10.0,68,0.00,,,0.00,WeatherCatV1.11B39,2013-03-12 01:02:00,
2013-03-11 21:07:00,64.9,53.7,29.84,SSE,155,2.0,5.0,67,0.00,,,0.00,WeatherCatV1.11B39,2013-03-12 01:07:00,
2013-03-11 21:12:00,64.9,53.7,29.84,SSE,159,4.0,5.0,67,0.00,,,0.00,WeatherCatV1.11B39,2013-03-12 01:12:00,
2013-03-11 21:17:00,64.8,53.6,29.84,SE,134,5.0,8.0,67,0.00,,,0.00,WeatherCatV1.11B39,2013-03-12 01:17:00,
2013-03-11 21:22:00,64.8,53.6,29.84,ESE,121,3.0,9.0,67,0.00,,,0.00,WeatherCatV1.11B39,2013-03-12 01:22:00,
2013-03-11 21:27:00,64.9,53.7,29.83,SE,146,2.0,8.0,67,0.00,,,0.00,WeatherCatV1.11B39,2013-03-12 01:27:00,
2013-03-11 21:32:00,64.9,53.7,29.82,SE,129,0.0,4.0,67,0.00,,,0.00,WeatherCatV1.11B39,2013-03-12 01:32:00,
2013-03-11 21:37:00,65.0,53.8,29.83,South,175,4.0,5.0,67,0.00,,,0.00,WeatherCatV1.11B39,2013-03-12 01:37:00,
2013-03-11 21:42:00,65.0,53.8,29.84,SSE,165,4.0,9.0,67,0.00,,,0.00,WeatherCatV1.11B39,2013-03-12 01:42:00,
2013-03-11 21:47:00,64.9,53.7,29.84,SE,145,7.0,9.0,67,0.00,,,0.00,WeatherCatV1.11B39,2013-03-12 01:47:00,
2013-03-11 21:52:00,64.9,54.1,29.84,SSE,159,0.0,10.0,68,0.00,,,0.00,WeatherCatV1.11B39,2013-03-12 01:52:00,
2013-03-11 21:57:00,64.9,54.1,29.83,SSW,205,5.0,10.0,68,0.00,,,0.00,WeatherCatV1.11B39,2013-03-12 01:57:00,
2013-03-11 22:02:00,64.9,54.1,29.83,SE,134,8.0,8.0,68,0.00,,,0.00,WeatherCatV1.11B39,2013-03-12 02:02:00,
2013-03-11 22:07:00,65.0,54.2,29.83,SE,146,5.0,10.0,68,0.00,,,0.00,WeatherCatV1.11B39,2013-03-12 02:07:00,
2013-03-11 22:12:00,64.9,54.1,29.83,South,175,4.0,8.0,68,0.00,,,0.00,WeatherCatV1.11B39,2013-03-12 02:12:00,
2013-03-11 22:17:00,64.9,54.1,29.85,SSE,164,7.0,9.0,68,0.00,,,0.00,WeatherCatV1.11B39,2013-03-12 02:17:00,
2013-03-11 22:22:00,64.9,54.1,29.86,SSE,164,8.0,8.0,68,0.00,,,0.00,WeatherCatV1.11B39,2013-03-12 02:22:00,
2013-03-11 22:27:00,64.9,54.5,29.86,SSW,211,0.0,9.0,69,0.00,,,0.00,WeatherCatV1.11B39,2013-03-12 02:27:00,
2013-03-11 22:32:00,64.9,54.5,29.86,SSW,192,7.0,10.0,69,0.00,,,0.00,WeatherCatV1.11B39,2013-03-12 02:32:00,
2013-03-11 22:37:00,64.9,54.5,29.86,SE,144,8.0,11.0,69,0.00,,,0.00,WeatherCatV1.11B39,2013-03-12 02:37:00,
2013-03-11 22:42:00,64.8,54.4,29.86,South,188,1.0,10.0,69,0.00,,,0.00,WeatherCatV1.11B39,2013-03-12 02:42:00,
2013-03-11 22:47:00,64.8,54.4,29.85,South,178,3.0,7.0,69,0.00,,,0.00,WeatherCatV1.11B39,2013-03-12 02:47:00,
2013-03-11 22:52:00,64.8,54.8,29.85,SSW,194,9.0,10.0,70,0.00,,,0.00,WeatherCatV1.11B39,2013-03-12 02:52:00,
2013-03-11 22:57:00,64.7,54.7,29.84,SSE,168,5.0,10.0,70,0.00,,,0.00,WeatherCatV1.11B39,2013-03-12 02:57:00,
2013-03-11 23:02:00,64.6,55.0,29.84,SE,138,0.0,6.0,71,0.00,,,0.00,WeatherCatV1.11B39,2013-03-12 03:02:00,
2013-03-11 23:07:00,64.4,54.8,29.84,SSE,157,5.0,7.0,71,0.00,,,0.00,WeatherCatV1.11B39,2013-03-12 03:07:00,
2013-03-11 23:12:00,64.3,54.7,29.84,South,173,5.0,9.0,71,0.00,,,0.00,WeatherCatV1.11B39,2013-03-12 03:12:00,
2013-03-11 23:17:00,64.2,55.0,29.83,ENE,72,0.0,3.0,72,0.00,,,0.00,WeatherCatV1.11B39,2013-03-12 03:17:00,
2013-03-11 23:22:00,64.1,54.9,29.83,South,187,4.0,10.0,72,0.00,,,0.00,WeatherCatV1.11B39,2013-03-12 03:22:00,
2013-03-11 23:27:00,64.0,54.8,29.82,ESE,102,2.0,7.0,72,0.00,,,0.00,WeatherCatV1.11B39,2013-03-12 03:27:00,
2013-03-11 23:32:00,64.0,54.8,29.82,South,173,0.0,3.0,72,0.00,,,0.00,WeatherCatV1.11B39,2013-03-12 03:32:00,
2013-03-11 23:37:00,63.9,55.1,29.83,SSE,150,0.0,9.0,73,0.00,,,0.00,WeatherCatV1.11B39,2013-03-12 03:37:00,
2013-03-11 23:42:00,63.9,55.1,29.83,South,177,0.0,6.0,73,0.00,,,0.00,WeatherCatV1.11B39,2013-03-12 03:42:00,
2013-03-11 23:47:00,63.9,55.1,29.82,SE,133,2.0,12.0,73,0.00,,,0.00,WeatherCatV1.11B39,2013-03-12 03:47:00,
2013-03-11 23:52:00,63.9,55.4,29.83,SE,133,0.0,7.0,74,0.00,,,0.00,WeatherCatV1.11B39,2013-03-12 03:52:00,
2013-03-11 23:57:00,63.9,55.4,29.82,South,190,10.0,12.0,74,0.00,,,0.00,WeatherCatV1.11B39,2013-03-12 03:57:00,